Weather History for Florala, AL

Change the Weather History Date:

Sunday, October 7, 2012

  Actual Average (KCEW) Record (KCEW)
Temperature  
Mean Temperature 68 °F -  
Max Temperature 78 °F 80 °F 92 °F (1951)
Min Temperature 57 °F 58 °F 39 °F (2010)
Cooling Degree Days 4    
Growing Degree Days 18 (Base 50)    
Moisture  
Dew Point 60 °F    
Average Humidity 83    
Maximum Humidity 94    
Minimum Humidity 60    
Precipitation  
Precipitation 0.00 in - - ()
Sea Level Pressure  
Sea Level Pressure 30.05 in    
Wind  
Wind Speed 4 mph (North)    
Max Wind Speed 8 mph    
Max Gust Speed -    
Visibility 9 miles    
Events      
Averages and records for this station are not official NWS values.
T = Trace of Precipitation, MM = Missing Value Source: NWS Daily Summary

Daily Weather History Graph

Daily Weather History Graph

Search for Another Location

Airport:

Trip Planner

Search our weather history database for the weather conditions in past years. The results will help you decide how hot, cold, wet, or windy it might be!

Date:

Astronomy

Oct. 07, 2012 Rise Set
Actual Time 6:42 AM CDT 6:22 PM CDT
Civil Twilight 6:18 AM CDT 6:46 PM CDT
Nautical Twilight 5:50 AM CDT 7:14 PM CDT
Astronomical Twilight 5:22 AM CDT 7:42 PM CDT
Moon 11:48 PM CDT (10/7) 1:04 PM CDT (10/7)
Length of Visible Light 12h 27m
Length of Day
11h 39m
Waning Gibbous, 56% of the Moon is Illuminated
Oct 7
Waning Gibbous
Oct 8
Last Quarter
Oct 15
New
Oct 21
First Quarter
Oct 29
Full

Hourly Weather History & Observations

Time (CDT) Temp. Dew Point Humidity Pressure Visibility Wind Dir Wind Speed Gust Speed Precip Events Conditions
12:58 AM 66.9 °F 64.9 °F 93% 30.00 in 9.0 mi North 4.6 mph - N/A   Clear
1:58 AM 66.0 °F 64.0 °F 93% 30.01 in 7.0 mi Calm Calm - N/A   Clear
2:58 AM 64.9 °F 63.0 °F 93% 30.00 in 6.0 mi Calm Calm - N/A   Clear
3:15 AM 64.4 °F 62.6 °F 94% 30.01 in 6.0 mi North 3.5 mph - N/A   Partly Cloudy
3:24 AM 64.4 °F 62.6 °F 94% 30.01 in 6.0 mi North 5.8 mph - N/A   Mostly Cloudy
3:46 AM 64.4 °F 60.8 °F 88% 30.02 in 10.0 mi Variable 3.5 mph - N/A   Scattered Clouds
3:58 AM 63.0 °F 61.0 °F 93% 30.01 in 9.0 mi North 3.5 mph - N/A   Scattered Clouds
4:07 AM 62.6 °F 60.8 °F 94% 30.02 in 9.0 mi Variable 4.6 mph - N/A   Mostly Cloudy
4:58 AM 62.1 °F 59.0 °F 90% 30.02 in 9.0 mi North 5.8 mph - N/A   Overcast
5:24 AM 60.8 °F 59.0 °F 94% 30.03 in 7.0 mi North 6.9 mph - N/A   Overcast
5:58 AM 61.0 °F 59.0 °F 93% 30.03 in 7.0 mi Calm Calm - N/A   Overcast
6:58 AM 61.0 °F 57.9 °F 90% 30.04 in 7.0 mi North 4.6 mph - N/A   Mostly Cloudy
7:07 AM 60.8 °F 57.2 °F 88% 30.05 in 8.0 mi Variable 4.6 mph - N/A   Scattered Clouds
7:45 AM 60.8 °F 57.2 °F 88% 30.06 in 8.0 mi NNW 5.8 mph - N/A   Mostly Cloudy
7:52 AM 60.8 °F 57.2 °F 88% 30.07 in 8.0 mi North 8.1 mph - N/A   Mostly Cloudy
7:58 AM 60.1 °F 57.0 °F 90% 30.06 in 7.0 mi North 8.1 mph - N/A   Overcast
8:58 AM 61.0 °F 57.9 °F 90% 30.09 in 7.0 mi Variable 4.6 mph - N/A   Overcast
9:58 AM 62.1 °F 57.9 °F 86% 30.10 in 9.0 mi North 4.6 mph - N/A   Overcast
10:04 AM 62.6 °F 57.2 °F 82% 30.11 in 9.0 mi Variable 4.6 mph - N/A   Overcast
10:58 AM 64.0 °F 57.9 °F 80% 30.10 in 10.0 mi Variable 5.8 mph - N/A   Overcast
11:46 AM 66.2 °F 59.0 °F 78% 30.10 in 10.0 mi North 6.9 mph - N/A   Overcast
11:58 AM 66.9 °F 59.0 °F 76% 30.08 in 10.0 mi North 8.1 mph - N/A   Overcast
12:14 PM 69.8 °F 59.0 °F 68% 30.08 in 10.0 mi North 6.9 mph - N/A   Scattered Clouds
12:58 PM 73.9 °F 61.0 °F 64% 30.06 in 10.0 mi NNE 6.9 mph - N/A   Clear
1:58 PM 75.9 °F 62.1 °F 62% 30.02 in 10.0 mi NNW 6.9 mph - N/A   Clear
2:58 PM 78.1 °F 63.0 °F 60% 30.00 in 10.0 mi North 6.9 mph - N/A   Partly Cloudy
3:58 PM 75.9 °F 63.0 °F 64% 30.00 in 10.0 mi North 5.8 mph - N/A   Scattered Clouds
4:58 PM 75.0 °F 62.1 °F 64% 30.01 in 10.0 mi North 8.1 mph - N/A   Clear
5:58 PM 71.1 °F 61.0 °F 70% 30.02 in 10.0 mi North 5.8 mph - N/A   Clear
6:58 PM 66.9 °F 61.0 °F 81% 30.04 in 10.0 mi North 3.5 mph - N/A   Clear
7:58 PM 64.9 °F 59.0 °F 81% 30.06 in 10.0 mi NNW 4.6 mph - N/A   Clear
8:58 PM 63.0 °F 57.0 °F 81% 30.08 in 10.0 mi North 5.8 mph - N/A   Clear
9:58 PM 61.0 °F 55.0 °F 81% 30.09 in 10.0 mi North 5.8 mph - N/A   Partly Cloudy
10:58 PM 59.0 °F 54.0 °F 83% 30.09 in 10.0 mi North 3.5 mph - N/A   Clear
11:58 PM 57.9 °F 54.0 °F 87% 30.08 in 10.0 mi NNW 3.5 mph - N/A   Clear